Weather History for Tacoma, WA

Change the Weather History Date:

Saturday, March 8, 2014

  Actual Average Record
Temperature  
Mean Temperature 44 °F -  
Max Temperature 54 °F 49 °F 69 °F (2005)
Min Temperature 35 °F 34 °F 26 °F (1963)
Degree Days  
Heating Degree Days 20    
Moisture  
Dew Point 46 °F    
Average Humidity 100    
Maximum Humidity 100    
Minimum Humidity 93    
Precipitation  
Precipitation 1.08 in - - ()
Sea Level Pressure  
Sea Level Pressure 29.91 in    
Wind  
Wind Speed 3 mph (South)    
Max Wind Speed 15 mph    
Max Gust Speed 21 mph    
Visibility 6 miles    
Events Rain    
Averages and records for this station are not official NWS values.
T = Trace of Precipitation, MM = Missing Value Source: NWS Daily Summary

Daily Weather History Graph

Daily Weather History Graph

Search for Another Location

Airport:

Trip Planner

Search our weather history database for the weather conditions in past years. The results will help you decide how hot, cold, wet, or windy it might be!

Date:

Astronomy

Mar. 08, 2014 Rise Set
Actual Time 6:36 AM PST 6:05 PM PST
Civil Twilight 6:05 AM PST 6:36 PM PST
Nautical Twilight 5:30 AM PST 7:11 PM PST
Astronomical Twilight 4:54 AM PST 7:47 PM PST
Moon 10:57 AM PST (3/8) 1:32 AM PST (3/8)
Length of Visible Light 12h 30m
Length of Day
11h 29m
First Quarter, 53% of the Moon is Illuminated
Mar 8
First Quarter
Mar 16
Full
Mar 23
Last Quarter
Mar 30
New
Apr 7
First Quarter

Hourly Weather History & Observations

Time (PST) Temp. Windchill Dew Point Humidity Pressure Visibility Wind Dir Wind Speed Gust Speed Precip Events Conditions
12:03 AM 39.2 °F - 39.2 °F 100% 30.11 in 9.0 mi East 2.3 mph - N/A   Clear
12:28 AM 37.4 °F - 37.4 °F 100% 30.11 in 1.5 mi Calm Calm - N/A   Clear
12:33 AM 37.4 °F - 37.4 °F 100% 30.11 in 0.8 mi SE 2.3 mph - N/A   Clear
12:38 AM 35.6 °F - 35.6 °F 100% 30.11 in 0.8 mi SE 1.2 mph - N/A   Clear
12:48 AM 35.6 °F - 33.8 °F 93% 30.11 in 0.8 mi SW 1.2 mph - N/A   Clear
12:53 AM 35.6 °F - 35.6 °F 100% 30.11 in 1.8 mi Calm Calm - N/A   Clear
12:58 AM 36.7 °F - 36.7 °F 100% 30.14 in 8.0 mi Calm Calm - N/A   Clear
1:53 AM 35.6 °F - 35.6 °F 100% 30.11 in 2.5 mi ESE 2.3 mph - N/A   Clear
1:58 AM 35.1 °F - 34.9 °F 99% 30.13 in 2.5 mi East 2.3 mph - N/A   Clear
2:03 AM 35.6 °F 32.8 °F 35.6 °F 100% 30.10 in 3.0 mi East 3.5 mph - N/A   Clear
2:58 AM 35.1 °F - 35.1 °F 100% 30.09 in 10.0 mi South 2.3 mph - N/A   Scattered Clouds
3:58 AM 37.0 °F - 37.0 °F 100% 30.08 in 10.0 mi Calm Calm - N/A   Mostly Cloudy
4:58 AM 35.1 °F - 34.7 °F 99% 30.06 in 10.0 mi South 2.3 mph - N/A   Mostly Cloudy
5:58 AM 35.8 °F - 35.4 °F 99% 30.05 in 10.0 mi ESE 1.2 mph - N/A   Clear
6:58 AM 38.1 °F - 38.1 °F 100% 30.03 in 10.0 mi Calm Calm - N/A   Scattered Clouds
7:58 AM 39.7 °F - 39.6 °F 99% 30.01 in 10.0 mi Calm Calm - N/A   Partly Cloudy
8:58 AM 43.0 °F 40.3 °F 42.8 °F 99% 30.01 in 10.0 mi WSW 4.6 mph - N/A   Partly Cloudy
9:11 AM 42.8 °F 41.1 °F 42.8 °F 100% 29.97 in 10.0 mi WNW 3.5 mph - N/A   Light Drizzle
9:23 AM 44.6 °F 42.2 °F 44.6 °F 100% 29.95 in 10.0 mi NNE 4.6 mph - N/A   Clear
9:58 AM 45.0 °F - 44.8 °F 99% 29.97 in 10.0 mi SE 1.2 mph - 0.00 in   Mostly Cloudy
9:59 AM 44.6 °F - 44.6 °F 100% 29.95 in 10.0 mi SSE 2.3 mph - N/A Rain Light Rain
10:58 AM 45.9 °F - 45.7 °F 99% 29.97 in 10.0 mi Variable 1.2 mph - 0.01 in Rain Light Rain
11:58 AM 46.8 °F - 46.4 °F 99% 29.93 in 6.0 mi NE 3.5 mph - 0.05 in Rain Light Rain
12:58 PM 47.7 °F - 47.3 °F 99% 29.91 in 8.0 mi North 3.5 mph - 0.05 in Rain Light Rain
1:58 PM 49.3 °F - 49.1 °F 99% 29.86 in 5.0 mi ENE 3.5 mph - 0.06 in Rain Light Rain
2:17 PM 48.2 °F - 48.2 °F 100% 29.84 in 2.0 mi NW 3.5 mph - N/A Rain Heavy Rain
2:22 PM 48.2 °F - 48.2 °F 100% 29.83 in 1.5 mi Variable 2.3 mph - N/A Rain Rain
2:27 PM 48.2 °F - 48.2 °F 100% 29.83 in 1.8 mi NE 1.2 mph - N/A Rain Rain
2:32 PM 48.2 °F - 48.2 °F 100% 29.83 in 3.0 mi North 2.3 mph - N/A Rain Light Rain
2:58 PM 49.1 °F - 49.1 °F 100% 29.84 in 4.0 mi NNW 3.5 mph - 0.17 in Rain Light Rain
3:13 PM 48.2 °F - 48.2 °F 100% 29.82 in 5.0 mi North 3.5 mph - N/A Rain Light Rain
3:58 PM 48.9 °F - 48.9 °F 100% 29.82 in 5.0 mi NNW 3.5 mph - 0.04 in Rain Light Rain
4:58 PM 49.6 °F - 49.6 °F 100% 29.78 in 4.0 mi NNE 2.3 mph - 0.08 in Rain Light Rain
5:13 PM 50.0 °F - 50.0 °F 100% 29.76 in 2.5 mi NNW 4.6 mph - N/A Rain Rain
5:18 PM 50.0 °F - 50.0 °F 100% 29.75 in 3.0 mi NNW 4.6 mph - N/A Rain Light Rain
5:33 PM 50.0 °F - 50.0 °F 100% 29.75 in 2.5 mi South 1.2 mph - N/A Rain Rain
5:43 PM 50.0 °F - 50.0 °F 100% 29.74 in 3.0 mi SSW 3.5 mph - N/A Rain Rain
5:58 PM 52.5 °F - 52.5 °F 100% 29.77 in 5.0 mi WSW 5.8 mph - 0.11 in Rain Light Rain
6:53 PM 50.0 °F - 50.0 °F 100% 29.75 in 4.0 mi Calm Calm - N/A Rain Rain
6:58 PM 50.2 °F - 50.2 °F 100% 29.77 in 3.0 mi Calm Calm - 0.11 in Rain Rain
7:18 PM 50.0 °F - 50.0 °F 100% 29.75 in 5.0 mi South 2.3 mph - N/A Rain Light Rain
7:58 PM 54.0 °F - 54.0 °F 100% 29.77 in 10.0 mi SSW 9.2 mph - 0.06 in Rain Light Rain
8:58 PM 54.1 °F - 54.0 °F 99% 29.80 in 9.0 mi SSW 15.0 mph - 0.09 in Rain Light Rain
9:03 PM 53.6 °F - 53.6 °F 100% 29.79 in 9.0 mi SSW 12.7 mph - N/A Rain Light Rain
9:18 PM 53.6 °F - 53.6 °F 100% 29.79 in 8.0 mi South 11.5 mph - N/A Rain Light Rain
9:23 PM 53.6 °F - 53.6 °F 100% 29.79 in 9.0 mi SSW 12.7 mph - N/A Rain Light Rain
9:28 PM 53.6 °F - 53.6 °F 100% 29.79 in 9.0 mi South 13.8 mph - N/A Rain Light Rain
9:33 PM 53.6 °F - 53.6 °F 100% 29.79 in 8.0 mi SSW 12.7 mph - N/A Rain Light Rain
9:58 PM 54.0 °F - 54.0 °F 100% 29.82 in 7.0 mi SSW 11.5 mph - 0.12 in Rain Rain
10:58 PM 53.6 °F - 53.6 °F 100% 29.83 in 10.0 mi SSW 5.8 mph - 0.09 in Rain Light Rain
11:18 PM 53.6 °F - 53.6 °F 100% 29.82 in 10.0 mi SSW 12.7 mph 20.7 mph N/A Rain Light Rain
11:28 PM 53.6 °F - 53.6 °F 100% 29.82 in 10.0 mi SSW 10.4 mph - N/A Rain Light Rain
11:53 PM 53.6 °F - 53.6 °F 100% 29.84 in 10.0 mi SW 10.4 mph - N/A Rain Light Rain
11:58 PM 53.6 °F - 53.6 °F 100% 29.87 in 10.0 mi WSW 9.2 mph - 0.04 in Rain Light Rain